Total_Precipitation_Accumulation
0.04 0.08 0.12 0.14 0.13 0.11 0.09 0.09 0.11 0.11 0.16 0.18 0.20 0.16 0.10 0.12 0.17 0.11 0.08 0.08 0.07 0.06 0.05 0.06 0.07 0.08 0.09 0.12 0.14 0.14 0.15 0.16 0.17 0.20 0.23 0.23 0.25 0.28 0.31 0.32 0.32 0.36 0.40 0.39
0.06 0.09 0.10 0.11 0.14 0.11 0.07 0.06 0.06 0.07 0.09 0.12 0.18 0.20 0.19 0.16 0.14 0.11 0.10 0.09 0.11 0.14 0.11 0.10 0.09 0.10 0.11 0.14 0.19 0.21 0.23 0.25 0.22 0.23 0.25 0.23 0.25 0.27 0.31 0.35 0.39 0.41 0.42 0.46
0.14 0.14 0.14 0.14 0.13 0.10 0.08 0.08 0.08 0.08 0.11 0.14 0.19 0.22 0.26 0.28 0.21 0.16 0.17 0.17 0.20 0.25 0.20 0.15 0.14 0.15 0.19 0.23 0.25 0.27 0.30 0.36 0.36 0.35 0.36 0.34 0.34 0.38 0.42 0.49 0.52 0.52 0.51 0.50
0.20 0.22 0.25 0.16 0.12 0.11 0.10 0.10 0.11 0.15 0.20 0.24 0.30 0.35 0.38 0.44 0.40 0.29 0.20 0.18 0.18 0.20 0.22 0.25 0.24 0.24 0.26 0.33 0.37 0.44 0.49 0.56 0.62 0.63 0.62 0.62 0.65 0.64 0.65 0.67 0.66 0.64 0.62 0.62
0.30 0.35 0.29 0.21 0.19 0.17 0.18 0.20 0.23 0.30 0.42 0.46 0.46 0.47 0.46 0.38 0.30 0.23 0.18 0.17 0.17 0.19 0.21 0.25 0.32 0.34 0.33 0.37 0.43 0.56 0.66 0.71 0.77 0.82 0.83 0.83 0.81 0.81 0.83 0.87 0.85 0.83 0.80 0.79
0.36 0.39 0.39 0.33 0.31 0.30 0.36 0.51 0.46 0.53 0.53 0.47 0.41 0.44 0.39 0.28 0.22 0.17 0.14 0.13 0.15 0.17 0.19 0.24 0.30 0.33 0.38 0.44 0.49 0.54 0.57 0.64 0.76 0.89 0.95 0.90 0.87 0.90 0.96 1.03 1.01 0.99 0.98 0.99
0.41 0.43 0.37 0.37 0.37 0.43 0.67 0.79 0.66 0.63 0.58 0.51 0.48 0.48 0.44 0.33 0.23 0.16 0.12 0.11 0.14 0.15 0.18 0.23 0.28 0.34 0.47 0.55 0.56 0.57 0.60 0.64 0.71 0.80 0.90 0.89 0.91 0.95 1.02 1.06 1.07 1.06 1.02 0.98
0.58 0.66 0.62 0.45 0.50 0.68 0.77 0.62 0.59 0.59 0.61 0.61 0.56 0.46 0.38 0.31 0.24 0.17 0.14 0.12 0.14 0.16 0.18 0.21 0.28 0.37 0.50 0.62 0.66 0.68 0.74 0.79 0.86 0.92 0.91 0.88 0.97 1.05 1.12 1.17 1.15 1.12 1.14 1.07
0.75 0.79 0.69 0.60 0.65 0.61 0.58 0.60 0.61 0.58 0.60 0.56 0.54 0.50 0.41 0.31 0.25 0.19 0.15 0.13 0.13 0.17 0.21 0.25 0.32 0.42 0.56 0.63 0.66 0.71 0.78 0.83 0.93 1.00 1.03 1.03 1.07 1.12 1.25 1.31 1.29 1.21 1.21 1.23
0.82 0.80 0.72 0.68 0.69 0.60 0.53 0.53 0.54 0.55 0.52 0.50 0.48 0.48 0.48 0.38 0.26 0.20 0.14 0.11 0.12 0.15 0.20 0.24 0.25 0.32 0.40 0.48 0.54 0.60 0.63 0.66 0.72 0.81 0.88 0.99 1.11 1.13 1.18 1.25 1.30 1.31 1.28 1.22
0.79 0.88 0.94 0.88 0.78 0.70 0.61 0.60 0.63 0.61 0.56 0.50 0.41 0.37 0.38 0.34 0.26 0.18 0.13 0.11 0.12 0.16 0.19 0.21 0.22 0.23 0.25 0.33 0.47 0.57 0.58 0.59 0.64 0.72 0.82 0.96 1.10 1.16 1.09 1.12 1.18 1.17 1.11 1.07
0.69 0.73 0.87 0.96 0.89 0.78 0.68 0.68 0.67 0.63 0.56 0.50 0.41 0.33 0.24 0.20 0.17 0.16 0.14 0.16 0.20 0.22 0.21 0.21 0.22 0.23 0.24 0.30 0.44 0.55 0.58 0.58 0.62 0.67 0.78 0.90 1.02 1.07 0.94 0.81 0.80 0.80 0.73 0.65
0.57 0.65 0.69 0.79 0.82 0.77 0.69 0.65 0.58 0.50 0.41 0.38 0.32 0.27 0.19 0.15 0.14 0.15 0.18 0.25 0.30 0.32 0.29 0.26 0.27 0.27 0.27 0.33 0.49 0.65 0.64 0.59 0.61 0.64 0.70 0.76 0.85 0.97 1.00 0.85 0.66 0.59 0.48 0.38
0.60 0.66 0.71 0.76 0.73 0.65 0.60 0.49 0.44 0.42 0.34 0.28 0.27 0.27 0.22 0.18 0.18 0.20 0.25 0.32 0.37 0.37 0.35 0.34 0.34 0.31 0.32 0.36 0.44 0.70 0.80 0.70 0.62 0.61 0.67 0.72 0.78 0.86 0.95 1.00 0.91 0.72 0.50 0.31
0.58 0.57 0.55 0.51 0.50 0.51 0.51 0.46 0.40 0.37 0.29 0.21 0.19 0.19 0.17 0.18 0.21 0.23 0.28 0.38 0.45 0.44 0.40 0.39 0.39 0.36 0.35 0.36 0.39 0.49 0.70 0.73 0.65 0.60 0.63 0.70 0.74 0.78 0.86 0.93 1.00 0.96 0.74 0.45
0.55 0.54 0.49 0.46 0.46 0.41 0.39 0.37 0.33 0.29 0.23 0.17 0.14 0.11 0.09 0.11 0.15 0.21 0.29 0.44 0.62 0.64 0.56 0.51 0.47 0.41 0.38 0.39 0.42 0.46 0.53 0.50 0.49 0.57 0.61 0.67 0.73 0.76 0.81 0.89 0.95 0.97 0.87 0.63
0.53 0.52 0.48 0.44 0.39 0.31 0.28 0.27 0.24 0.19 0.16 0.14 0.14 0.13 0.14 0.18 0.24 0.31 0.39 0.48 0.60 0.65 0.62 0.61 0.54 0.44 0.40 0.42 0.45 0.46 0.50 0.44 0.34 0.45 0.59 0.65 0.71 0.77 0.78 0.84 0.91 0.93 0.84 0.55
0.39 0.38 0.35 0.31 0.29 0.24 0.20 0.17 0.15 0.13 0.12 0.12 0.14 0.16 0.19 0.30 0.47 0.58 0.62 0.65 0.65 0.58 0.54 0.56 0.47 0.37 0.34 0.34 0.38 0.42 0.52 0.51 0.38 0.41 0.54 0.60 0.63 0.76 0.80 0.82 0.85 0.87 0.78 0.52
0.29 0.27 0.22 0.17 0.15 0.13 0.11 0.10 0.11 0.11 0.11 0.13 0.19 0.24 0.27 0.35 0.51 0.63 0.69 0.79 0.87 0.79 0.63 0.52 0.40 0.33 0.30 0.25 0.24 0.33 0.45 0.50 0.41 0.39 0.49 0.48 0.55 0.74 0.78 0.78 0.81 0.82 0.68 0.57
0.21 0.18 0.15 0.12 0.10 0.08 0.07 0.07 0.10 0.12 0.12 0.18 0.27 0.31 0.35 0.41 0.51 0.62 0.64 0.72 0.86 0.88 0.74 0.55 0.37 0.29 0.24 0.19 0.20 0.27 0.39 0.47 0.40 0.33 0.38 0.47 0.58 0.70 0.75 0.74 0.77 0.80 0.71 0.61
0.16 0.12 0.09 0.08 0.08 0.08 0.07 0.08 0.12 0.16 0.17 0.22 0.31 0.39 0.46 0.46 0.47 0.56 0.70 0.77 0.73 0.75 0.73 0.64 0.44 0.29 0.20 0.20 0.21 0.29 0.40 0.46 0.39 0.30 0.32 0.41 0.55 0.67 0.74 0.76 0.76 0.75 0.67 0.61
0.11 0.09 0.08 0.07 0.07 0.07 0.07 0.08 0.11 0.14 0.18 0.28 0.35 0.42 0.51 0.49 0.49 0.49 0.53 0.66 0.70 0.78 0.73 0.67 0.55 0.39 0.25 0.20 0.20 0.27 0.36 0.42 0.38 0.30 0.28 0.36 0.50 0.60 0.67 0.71 0.73 0.71 0.68 0.65
0.09 0.07 0.04 0.03 0.03 0.04 0.04 0.06 0.07 0.10 0.22 0.37 0.43 0.48 0.53 0.49 0.53 0.64 0.59 0.50 0.54 0.67 0.61 0.55 0.53 0.43 0.30 0.23 0.21 0.27 0.38 0.46 0.45 0.34 0.29 0.35 0.43 0.48 0.56 0.60 0.62 0.66 0.70 0.66
0.10 0.06 0.05 0.03 0.03 0.03 0.06 0.07 0.06 0.09 0.21 0.33 0.34 0.40 0.44 0.45 0.47 0.49 0.51 0.50 0.53 0.60 0.52 0.47 0.45 0.41 0.38 0.34 0.34 0.36 0.41 0.45 0.43 0.33 0.29 0.34 0.37 0.40 0.48 0.57 0.64 0.70 0.67 0.60
0.09 0.06 0.05 0.05 0.05 0.07 0.08 0.08 0.07 0.10 0.24 0.37 0.33 0.33 0.34 0.37 0.47 0.50 0.48 0.46 0.51 0.53 0.49 0.47 0.43 0.39 0.38 0.46 0.51 0.50 0.45 0.43 0.39 0.32 0.30 0.31 0.35 0.38 0.46 0.59 0.69 0.70 0.62 0.59
0.10 0.09 0.07 0.06 0.06 0.07 0.08 0.09 0.09 0.12 0.29 0.52 0.49 0.40 0.37 0.35 0.38 0.45 0.52 0.51 0.51 0.54 0.51 0.47 0.41 0.41 0.41 0.51 0.56 0.52 0.45 0.41 0.39 0.37 0.35 0.36 0.41 0.47 0.54 0.63 0.65 0.57 0.51 0.48
0.06 0.06 0.06 0.05 0.05 0.06 0.08 0.11 0.14 0.18 0.32 0.58 0.63 0.47 0.39 0.38 0.41 0.47 0.55 0.57 0.54 0.52 0.49 0.43 0.38 0.37 0.38 0.42 0.44 0.44 0.42 0.41 0.42 0.41 0.39 0.40 0.41 0.46 0.49 0.53 0.53 0.46 0.42 0.39